Time,TemperatureF,DewpointF,PressureIn,WindDirection,WindDirectionDegrees,WindSpeedMPH,WindSpeedGustMPH,Humidity,HourlyPrecipIn,Conditions,Clouds,dailyrainin,SoftwareType,DateUTC
2013-02-13 00:02:00,44.0,22.0,30.24,ENE,62,0.0,0.0,41,0.00,,,0.00,,2013-02-13 07:02:00,
2013-02-13 00:11:00,43.0,22.0,30.24,ENE,62,1.0,2.0,42,0.00,,,0.00,,2013-02-13 07:11:00,
2013-02-13 00:21:00,43.0,22.0,30.24,ENE,62,1.0,2.0,42,0.00,,,0.00,,2013-02-13 07:21:00,
2013-02-13 00:31:00,42.0,22.0,30.24,SSW,195,0.0,0.0,44,0.00,,,0.00,,2013-02-13 07:31:00,
2013-02-13 00:41:00,42.0,22.0,30.24,SSW,195,0.0,1.0,45,0.00,,,0.00,,2013-02-13 07:41:00,
2013-02-13 00:51:00,42.0,22.0,30.24,SSW,195,0.0,1.0,45,0.00,,,0.00,,2013-02-13 07:51:00,
2013-02-13 01:01:00,42.0,23.0,30.24,South,182,0.0,0.0,47,0.00,,,0.00,,2013-02-13 08:01:00,
2013-02-13 01:11:00,41.0,22.0,30.24,SW,228,0.0,0.0,47,0.00,,,0.00,,2013-02-13 08:11:00,
2013-02-13 01:21:00,41.0,22.0,30.24,SW,228,0.0,0.0,47,0.00,,,0.00,,2013-02-13 08:21:00,
2013-02-13 01:31:00,41.0,23.0,30.23,SW,228,0.0,0.0,48,0.00,,,0.00,,2013-02-13 08:31:00,
2013-02-13 01:42:00,41.0,23.0,30.23,SW,228,0.0,0.0,48,0.00,,,0.00,,2013-02-13 08:42:00,
2013-02-13 01:52:00,41.0,24.0,30.23,SE,137,2.0,2.0,51,0.00,,,0.00,,2013-02-13 08:52:00,
2013-02-13 02:01:00,40.0,23.0,30.23,SSE,154,0.0,0.0,51,0.00,,,0.00,,2013-02-13 09:01:00,
2013-02-13 02:11:00,40.0,23.0,30.23,SSE,154,0.0,0.0,51,0.00,,,0.00,,2013-02-13 09:11:00,
2013-02-13 02:21:00,40.0,24.0,30.23,SSE,154,1.0,2.0,52,0.00,,,0.00,,2013-02-13 09:21:00,
2013-02-13 02:31:00,40.0,24.0,30.23,SE,125,0.0,0.0,52,0.00,,,0.00,,2013-02-13 09:31:00,
2013-02-13 02:41:00,39.0,23.0,30.22,SE,125,0.0,0.0,53,0.00,,,0.00,,2013-02-13 09:41:00,
2013-02-13 02:51:00,39.0,23.0,30.22,SE,125,0.0,0.0,53,0.00,,,0.00,,2013-02-13 09:51:00,
2013-02-13 03:01:00,39.0,24.0,30.22,SE,125,0.0,0.0,55,0.00,,,0.00,,2013-02-13 10:01:00,
2013-02-13 03:11:00,39.0,24.0,30.22,SE,125,0.0,0.0,55,0.00,,,0.00,,2013-02-13 10:11:00,
2013-02-13 03:21:00,39.0,24.0,30.22,SE,125,0.0,0.0,55,0.00,,,0.00,,2013-02-13 10:21:00,
2013-02-13 03:31:00,39.0,24.0,30.22,ESE,120,0.0,0.0,55,0.00,,,0.00,,2013-02-13 10:31:00,
2013-02-13 03:41:00,39.0,24.0,30.21,ESE,118,0.0,0.0,55,0.00,,,0.00,,2013-02-13 10:41:00,
2013-02-13 03:51:00,39.0,24.0,30.21,ESE,118,0.0,0.0,55,0.00,,,0.00,,2013-02-13 10:51:00,
2013-02-13 04:01:00,39.0,24.0,30.21,ESE,118,0.0,0.0,55,0.00,,,0.00,,2013-02-13 11:01:00,
2013-02-13 04:11:00,39.0,24.0,30.21,ESE,118,0.0,0.0,55,0.00,,,0.00,,2013-02-13 11:11:00,
2013-02-13 04:22:00,39.0,24.0,30.21,ESE,118,0.0,0.0,55,0.00,,,0.00,,2013-02-13 11:22:00,
2013-02-13 17:01:00,68.0,25.0,30.11,NNE,30,6.0,6.0,20,0.00,,,0.00,,2013-02-14 00:01:00,
2013-02-13 17:11:00,68.0,25.0,30.11,NNE,30,6.0,6.0,20,0.00,,,0.00,,2013-02-14 00:11:00,
2013-02-13 17:21:00,68.0,25.0,30.10,NNE,30,7.0,10.0,20,0.00,,,0.00,,2013-02-14 00:21:00,
2013-02-13 17:31:00,68.0,25.0,30.10,NNW,345,7.0,10.0,20,0.00,,,0.00,,2013-02-14 00:31:00,
2013-02-13 17:41:00,68.0,25.0,30.10,NNW,345,7.0,10.0,20,0.00,,,0.00,,2013-02-14 00:41:00,
2013-02-13 17:51:00,68.0,27.0,30.10,NNE,15,7.0,10.0,21,0.00,,,0.00,,2013-02-14 00:51:00,
2013-02-13 18:01:00,67.0,26.0,30.10,NNE,17,6.0,7.0,21,0.00,,,0.00,,2013-02-14 01:01:00,
2013-02-13 18:11:00,67.0,26.0,30.10,North,4,4.0,5.0,21,0.00,,,0.00,,2013-02-14 01:11:00,
2013-02-13 18:21:00,67.0,26.0,30.10,North,4,4.0,5.0,21,0.00,,,0.00,,2013-02-14 01:21:00,
2013-02-13 18:31:00,66.0,27.0,30.10,NNE,29,3.0,4.0,23,0.00,,,0.00,,2013-02-14 01:31:00,
2013-02-13 18:41:00,66.0,27.0,30.10,NNE,29,3.0,4.0,23,0.00,,,0.00,,2013-02-14 01:41:00,
2013-02-13 18:51:00,65.0,26.0,30.10,North,4,1.0,3.0,23,0.00,,,0.00,,2013-02-14 01:51:00,
2013-02-13 19:01:00,64.0,27.0,30.10,NNE,22,1.0,1.0,25,0.00,,,0.00,,2013-02-14 02:01:00,
2013-02-13 19:11:00,63.0,28.0,30.10,NNE,22,0.0,1.0,26,0.00,,,0.00,,2013-02-14 02:11:00,
2013-02-13 19:21:00,63.0,28.0,30.10,NNE,22,0.0,1.0,26,0.00,,,0.00,,2013-02-14 02:21:00,
2013-02-13 19:31:00,61.0,27.0,30.10,NNE,26,1.0,2.0,27,0.00,,,0.00,,2013-02-14 02:31:00,
2013-02-13 19:41:00,61.0,27.0,30.10,NNE,26,1.0,2.0,27,0.00,,,0.00,,2013-02-14 02:41:00,
2013-02-13 19:51:00,61.0,27.0,30.10,NNE,26,1.0,2.0,27,0.00,,,0.00,,2013-02-14 02:51:00,
2013-02-13 20:02:00,59.0,28.0,30.11,NNE,23,0.0,0.0,31,0.00,,,0.00,,2013-02-14 03:02:00,
2013-02-13 20:11:00,58.0,28.0,30.11,NNE,24,1.0,1.0,31,0.00,,,0.00,,2013-02-14 03:11:00,
2013-02-13 20:21:00,58.0,28.0,30.11,NNE,24,1.0,1.0,31,0.00,,,0.00,,2013-02-14 03:21:00,
2013-02-13 20:31:00,56.0,28.0,30.11,NNE,23,0.0,0.0,34,0.00,,,0.00,,2013-02-14 03:31:00,
2013-02-13 20:42:00,56.0,28.0,30.11,NNE,23,0.0,0.0,34,0.00,,,0.00,,2013-02-14 03:42:00,
2013-02-13 20:51:00,56.0,29.0,30.11,NNE,24,0.0,0.0,35,0.00,,,0.00,,2013-02-14 03:51:00,
2013-02-13 21:01:00,55.0,30.0,30.11,WSW,257,0.0,0.0,38,0.00,,,0.00,,2013-02-14 04:01:00,
2013-02-13 21:11:00,54.0,30.0,30.11,WSW,256,0.0,0.0,39,0.00,,,0.00,,2013-02-14 04:11:00,
2013-02-13 21:21:00,54.0,30.0,30.11,WSW,256,0.0,0.0,39,0.00,,,0.00,,2013-02-14 04:21:00,
2013-02-13 21:31:00,53.0,30.0,30.11,WSW,256,0.0,0.0,41,0.00,,,0.00,,2013-02-14 04:31:00,
2013-02-13 21:41:00,53.0,30.0,30.11,WSW,256,0.0,0.0,41,0.00,,,0.00,,2013-02-14 04:41:00,
2013-02-13 21:51:00,53.0,31.0,30.11,WSW,256,0.0,0.0,42,0.00,,,0.00,,2013-02-14 04:51:00,
2013-02-13 22:01:00,52.0,32.0,30.11,WSW,256,0.0,0.0,46,0.00,,,0.00,,2013-02-14 05:01:00,
2013-02-13 22:11:00,52.0,32.0,30.11,WSW,256,0.0,0.0,46,0.00,,,0.00,,2013-02-14 05:11:00,
2013-02-13 22:21:00,53.0,31.0,30.11,WSW,256,1.0,1.0,42,0.00,,,0.00,,2013-02-14 05:21:00,
2013-02-13 22:31:00,52.0,30.0,30.12,WSW,256,0.0,0.0,43,0.00,,,0.00,,2013-02-14 05:31:00,
2013-02-13 22:41:00,52.0,30.0,30.12,WSW,256,0.0,0.0,43,0.00,,,0.00,,2013-02-14 05:41:00,
2013-02-13 22:51:00,51.0,30.0,30.12,WSW,256,0.0,0.0,44,0.00,,,0.00,,2013-02-14 05:51:00,
2013-02-13 23:01:00,50.0,30.0,30.12,WSW,256,0.0,0.0,46,0.00,,,0.00,,2013-02-14 06:01:00,
2013-02-13 23:11:00,50.0,31.0,30.12,WSW,256,0.0,0.0,47,0.00,,,0.00,,2013-02-14 06:11:00,
2013-02-13 23:21:00,50.0,31.0,30.12,WSW,256,0.0,0.0,47,0.00,,,0.00,,2013-02-14 06:21:00,
2013-02-13 23:31:00,49.0,30.0,30.12,NW,323,0.0,0.0,48,0.00,,,0.00,,2013-02-14 06:31:00,
2013-02-13 23:41:00,49.0,30.0,30.12,NW,323,0.0,0.0,48,0.00,,,0.00,,2013-02-14 06:41:00,
2013-02-13 23:51:00,49.0,31.0,30.12,NW,323,0.0,0.0,49,0.00,,,0.00,,2013-02-14 06:51:00,